New York JFK, NY

12:12 AM EDT on September 23, 2017 (GMT -0400)
Kennedy International

Weather History for KJFK - August, 2013

Change the Weather History Date:

Tuesday, August 27, 2013

  Actual Average Record
Temperature  
Mean Temperature 80 °F 74 °F  
Max Temperature 88 °F 81 °F 101 °F (1948)
Min Temperature 72 °F 67 °F 59 °F (1969)
Degree Days  
Heating Degree Days 0 0  
Month to date heating degree days 0 0  
Since 1 June heating degree days 10 21  
Since 1 July heating degree days 0 0  
Cooling Degree Days 15 9  
Month to date cooling degree days 251 275  
Year to date cooling degree days 912 830  
Since 1 June cooling degree days 886 795  
Growing Degree Days 30 (Base 50)    
Moisture  
Dew Point 66 °F    
Average Humidity 65    
Maximum Humidity 84    
Minimum Humidity 45    
Precipitation  
Precipitation 0.03 in 0.10 in 2.69 in (2011)
Month to date precipitation 2.73 3.27  
Year to date precipitation 26.19 28.55  
Snow  
Snow 0.00 in 0.00 in - ()
Month to date snowfall 0.0 0.0  
Since 1 July snowfall 0.0 0.0  
Snow Depth 0.00 in    
Sea Level Pressure  
Sea Level Pressure 29.87 in    
Wind  
Wind Speed 12 mph (NW)    
Max Wind Speed 23 mph    
Max Gust Speed 28 mph    
Visibility 10 miles    
Events Rain    
T = Trace of Precipitation, MM = Missing Value Source: NWS Daily Summary

Daily Weather History Graph

Daily Weather History Graph

Search for Another Location

Airport or City:

Trip Planner

Search our weather history database for the weather conditions in past years. The results will help you decide how hot, cold, wet, or windy it might be!

Date:

Astronomy

Aug. 27, 2013 Rise Set
Actual Time 6:17 AM EDT 7:34 PM EDT
Civil Twilight 5:49 AM EDT 8:03 PM EDT
Nautical Twilight 5:15 AM EDT 8:37 PM EDT
Astronomical Twilight 4:39 AM EDT 9:12 PM EDT
Moon 11:23 PM EDT (8/27) 1:15 PM EDT (8/27)
Length of Visible Light 14h 13m
Length of Day
13h 17m
Waning Gibbous, 57% of the Moon is Illuminated
Aug 27
Waning Gibbous
Aug 28
Last Quarter
Sep 5
New
Sep 12
First Quarter
Sep 19
Full

Hourly Weather History & Observations

Time (EDT) Temp. Heat Index Dew Point Humidity Pressure Visibility Wind Dir Wind Speed Gust Speed Precip Events Conditions
12:51 AM 73.0 °F - 68.0 °F 84% 29.91 in 10.0 mi SW 10.4 mph - 0.00 in   Overcast
1:51 AM 73.0 °F - 68.0 °F 84% 29.89 in 10.0 mi SW 11.5 mph - N/A   Overcast
2:51 AM 73.0 °F - 69.1 °F 87% 29.88 in 10.0 mi WSW 13.8 mph - 0.00 in Rain Light Rain
3:51 AM 72.0 °F - 69.1 °F 91% 29.85 in 10.0 mi SW 13.8 mph - 0.03 in Rain Light Rain
4:51 AM 72.0 °F - 69.1 °F 91% 29.84 in 10.0 mi WSW 11.5 mph - 0.00 in   Overcast
5:51 AM 73.0 °F - 68.0 °F 84% 29.83 in 10.0 mi West 12.7 mph - N/A   Overcast
6:51 AM 73.0 °F - 66.9 °F 81% 29.83 in 10.0 mi West 10.4 mph - N/A   Mostly Cloudy
7:51 AM 73.0 °F - 66.9 °F 81% 29.85 in 10.0 mi NNW 17.3 mph 25.3 mph N/A   Mostly Cloudy
8:18 AM 73.4 °F - 66.2 °F 78% 29.85 in 10.0 mi NNW 17.3 mph - N/A   Mostly Cloudy
8:51 AM 73.9 °F - 66.9 °F 79% 29.87 in 10.0 mi NNW 17.3 mph - N/A   Mostly Cloudy
9:12 AM 73.4 °F - 66.2 °F 78% 29.86 in 10.0 mi NNW 13.8 mph - N/A   Mostly Cloudy
9:51 AM 75.0 °F - 66.9 °F 76% 29.87 in 10.0 mi North 16.1 mph 23.0 mph 0.00 in   Mostly Cloudy
10:19 AM 78.8 °F - 66.2 °F 65% 29.86 in 10.0 mi North 15.0 mph - N/A   Mostly Cloudy
10:51 AM 77.0 °F - 66.0 °F 69% 29.88 in 10.0 mi North 17.3 mph 25.3 mph N/A   Mostly Cloudy
11:51 AM 81.0 °F 83.3 °F 66.9 °F 62% 29.87 in 10.0 mi North 16.1 mph 24.2 mph N/A   Mostly Cloudy
12:51 PM 84.0 °F 86.5 °F 66.9 °F 56% 29.88 in 10.0 mi North 17.3 mph - N/A   Scattered Clouds
1:51 PM 84.9 °F 87.1 °F 66.0 °F 53% 29.88 in 10.0 mi NNW 16.1 mph 25.3 mph N/A   Scattered Clouds
2:51 PM 87.1 °F 88.9 °F 64.9 °F 48% 29.87 in 10.0 mi NNW 10.4 mph 20.7 mph N/A   Scattered Clouds
3:51 PM 86.0 °F 87.6 °F 64.9 °F 49% 29.85 in 10.0 mi North 16.1 mph 24.2 mph N/A   Scattered Clouds
4:51 PM 87.1 °F 88.3 °F 64.0 °F 46% 29.85 in 10.0 mi North 10.4 mph - N/A   Scattered Clouds
5:51 PM 86.0 °F 86.8 °F 63.0 °F 46% 29.86 in 10.0 mi North 11.5 mph 20.7 mph N/A   Scattered Clouds
6:51 PM 84.0 °F 85.8 °F 64.9 °F 53% 29.86 in 10.0 mi North 8.1 mph - N/A   Scattered Clouds
7:51 PM 82.0 °F 83.4 °F 64.0 °F 54% 29.88 in 10.0 mi NNE 9.2 mph - N/A   Scattered Clouds
8:51 PM 81.0 °F 82.5 °F 64.0 °F 56% 29.88 in 10.0 mi NE 4.6 mph - N/A   Mostly Cloudy
9:51 PM 80.1 °F 81.7 °F 64.0 °F 58% 29.89 in 10.0 mi NNE 4.6 mph - N/A   Mostly Cloudy
10:51 PM 75.9 °F - 64.9 °F 69% 29.91 in 10.0 mi South 4.6 mph - N/A   Mostly Cloudy
11:51 PM 73.0 °F - 66.0 °F 79% 29.91 in 10.0 mi SSW 4.6 mph - N/A   Scattered Clouds